Simultaneous Nadir Overpasses (SNOs) Predictions

Prediction of SNOs between AQUA and METOP-A Satellite Orbit:

Table of predicted SNOs for the next 14.0 days since TLE Epoch: 11/24/2012
Index Date (AQUA) Time (AQUA) AQUA Lat,Lon Date (METOP-A) Time (METOP-A) METOP-A Lat,Lon Distance(km) Time Diff (sec)
1 11/25/2012 17:21:46 -73.84, 93.67 11/25/2012 17:21:25 -73.85, 93.73 2.13 21
2 11/25/2012 18:11:15 73.91, -98.86 11/25/2012 18:12:04 73.88, -98.85 3.33 49
3 11/28/2012 12:06:26 73.43, -6.65 11/28/2012 12:05:17 73.35, -8.35 54.78 69
4 11/28/2012 12:55:59 -73.83, 160.15 11/28/2012 12:55:49 -73.84, 160.12 2.09 10
5 11/28/2012 13:45:28 73.90, -32.39 11/28/2012 13:46:27 73.93, -32.34 3.08 59
6 12/01/2012 07:40:43 73.79, 59.03 12/01/2012 07:39:32 73.78, 59.04 1.63 71
7 12/01/2012 08:30:10 -73.87,-133.50 12/01/2012 08:30:12 -73.88,-133.40 3.00 2
8 12/01/2012 09:19:38 73.90, 34.07 12/01/2012 09:20:51 73.91, 34.01 2.12 73
9 12/04/2012 03:14:52 73.80, 125.49 12/04/2012 03:13:57 73.80, 125.48 0.68 55
10 12/04/2012 04:04:19 -73.87, -67.03 12/04/2012 04:04:38 -73.85, -67.08 2.37 19
11 12/04/2012 04:53:59 74.53, 99.08 12/04/2012 04:55:05 74.48, 101.82 81.61 66
12 12/06/2012 22:48:59 73.81,-168.06 12/06/2012 22:48:23 73.81,-168.11 1.79 36
13 12/06/2012 23:38:26 -73.87, -0.57 12/06/2012 23:39:04 -73.86, -0.66 3.20 38




NCC Satellite Simultaneous Nadir Overpasses (SNOs) Prediction Service
